[[{"header":{"parameterUnit":"m.s-1","parameterCategory":1,"la1":30.2992,"la2":30.254,"lo1":-89.0895,"lo2":-89.0443,"dy":0.0025,"dx":0.0025,"nx":19,"ny":19,"refTime":"2026-04-21T03:00:00:Z","depth":0,"parameterNumber":2,"parameterNumberName":"U-component_of_WINDS"},"data":[0,0,0,-0.0234,-0.0235,-0.0282,-0.0282,-0.0355,-0.0356,0,0,0,0,0,0,0,0,0,0,0,-0.0226,-0.0226,-0.0234,-0.0235,-0.0282,-0.0282,-0.0355,-0.0356,0,0,0,0,0,0,0,0,0,0,0,-0.0225,-0.0226,-0.0227,-0.0236,-0.0282,-0.0282,-0.0355,-0.0315,0,0,0,0,0,0,0,0,0,0,-0.0268,-0.0265,-0.0226,-0.0227,-0.0236,-0.0282,-0.0282,-0.0313,-0.0318,-0.0338,0,-0.0356,0,-0.0357,-0.0361,-0.0361,0,0,0,-0.0232,-0.0261,-0.0268,-0.0227,-0.0236,-0.0282,-0.026,-0.0315,-0.0321,-0.0344,-0.0357,-0.036,-0.0358,-0.0362,-0.0362,-0.0492,-0.0493,0,0,-0.0229,-0.0237,-0.0265,-0.0272,-0.0263,-0.0259,-0.0262,-0.0318,-0.0334,-0.0357,-0.0361,-0.036,-0.0362,-0.0363,-0.0491,-0.0492,0,0,0,-0.0224,-0.0236,-0.0242,-0.0269,-0.0277,-0.026,-0.0263,-0.0331,-0.0332,-0.0362,-0.036,-0.0363,-0.0364,-0.049,-0.0492,-0.0541,0,0,0,-0.0222,-0.0233,-0.0241,-0.0246,-0.0276,-0.0304,-0.0275,-0.0328,-0.0335,-0.036,-0.0363,-0.0364,-0.049,-0.0491,-0.0538,-0.0564,0,0,0,-0.0221,-0.0232,-0.0241,-0.0247,-0.0267,-0.0303,-0.0307,-0.0329,-0.0334,-0.0361,-0.0365,-0.0489,-0.0491,-0.0535,-0.0559,-0.0604,0,0,0,-0.0222,-0.0282,-0.0242,-0.0309,-0.0267,-0.0331,-0.0307,-0.0355,-0.0384,-0.0363,-0.049,-0.0492,-0.0534,-0.0556,-0.0601,-0.0645,-0.0664,0,0,-0.0303,-0.0292,-0.0331,-0.0296,-0.0371,-0.0324,-0.0406,-0.0425,-0.0419,-0.0469,-0.0472,-0.0539,-0.0558,-0.0603,-0.0757,-0.0772,0,0,0,-0.036,-0.0389,-0.0406,-0.0434,-0.045,-0.0467,-0.0472,-0.048,-0.0521,-0.0446,-0.0564,-0.0576,-0.0602,-0.0623,-0.0636,-0.066,-0.05,-0.05,-0.05,-0.0488,-0.0479,-0.0544,-0.0541,-0.0569,-0.0575,-0.0598,-0.0609,-0.059,-0.0619,-0.0635,-0.0729,-0.0754,-0.0764,-0.0788,-0.0654,-0.0654,-0.0654,-0.0655,-0.061,-0.0651,-0.0626,-0.068,-0.0671,-0.0718,-0.0726,-0.0712,-0.0756,-0.0715,-0.0738,-0.0698,-0.078,-0.0802,-0.0658,-0.0658,-0.0657,-0.0657,-0.0657,-0.0697,-0.0715,-0.0722,-0.0764,-0.0798,-0.0793,-0.0837,-0.0826,-0.0816,-0.0837,-0.0856,-0.0855,-0.0857,-0.0846,-0.0847,-0.0847,-0.0847,-0.0847,-0.0848,-0.0785,-0.0792,-0.083,-0.0853,-0.0872,-0.0895,-0.0902,-0.0921,-0.0939,-0.0928,-0.0928,-0.091,-0.0788,-0.076,-0.0853,-0.0852,-0.0851,-0.0851,-0.085,-0.0919,-0.0887,-0.0946,-0.0965,-0.0993,-0.103,-0.1014,-0.1054,-0.1068,-0.1091,-0.1067,-0.0977,-0.0966,-0.0956,-0.0934,-0.1066,-0.1066,-0.1066,-0.1066,-0.0996,-0.0988,-0.1048,-0.1079,-0.1108,-0.1101,-0.1172,-0.118,-0.1183,-0.1192,-0.117,-0.1137,-0.1127,-0.1123,-0.1109,-0.1088,-0.1257,-0.1257,-0.1257,-0.108,-0.1075,-0.1137,-0.1138,-0.116,-0.118,-0.1248,-0.1288,-0.1284,-0.1265,-0.12,-0.1192,-0.1139,-0.1121,-0.1104,-0.1083,-0.1044,0,0]},{"header":{"parameterUnit":"m.s-1","parameterCategory":1,"la1":30.2992,"la2":30.254,"lo1":-89.0895,"lo2":-89.0443,"dy":0.0025,"dx":0.0025,"nx":19,"ny":19,"refTime":"2026-04-21T03:00:00:Z","depth":0,"parameterNumber":3,"parameterNumberName":"V-component_of_WINDS"},"data":[0,0,0,1.6523,1.6523,1.6492,1.6492,1.6456,1.6455,0,0,0,0,0,0,0,0,0,0,0,1.6534,1.6534,1.6523,1.6523,1.6492,1.6492,1.6456,1.6455,0,0,0,0,0,0,0,0,0,0,0,1.6534,1.6534,1.6534,1.6523,1.6492,1.6492,1.6456,1.6478,0,0,0,0,0,0,0,0,0,0,1.6507,1.6519,1.6534,1.6534,1.6523,1.6493,1.6492,1.6479,1.6476,1.6471,0,1.6466,0,1.646,1.6453,1.6453,0,0,0,1.6521,1.6521,1.6511,1.6534,1.6522,1.6493,1.6506,1.6477,1.6475,1.6467,1.6466,1.6464,1.646,1.6453,1.6453,1.6426,1.6426,0,0,1.6523,1.653,1.6513,1.6509,1.6515,1.6507,1.6505,1.6476,1.6474,1.6466,1.6463,1.6459,1.6453,1.6452,1.6426,1.6426,0,0,0,1.6529,1.6531,1.6522,1.6511,1.6505,1.6506,1.6504,1.6475,1.6472,1.6463,1.6459,1.6453,1.6452,1.6426,1.6426,1.643,0,0,0,1.653,1.6534,1.6523,1.6526,1.6506,1.649,1.6504,1.6474,1.647,1.6459,1.6452,1.6452,1.6426,1.6426,1.643,1.643,0,0,0,1.6536,1.6535,1.6531,1.6527,1.6514,1.649,1.6485,1.6473,1.6468,1.6453,1.6452,1.6426,1.6426,1.643,1.643,1.6425,0,0,0,1.6544,1.6535,1.6531,1.652,1.6514,1.6493,1.6485,1.6469,1.6457,1.6452,1.6426,1.6426,1.643,1.643,1.6425,1.6421,1.6421,0,0,1.6536,1.6534,1.6527,1.6523,1.6504,1.6498,1.6479,1.6461,1.6453,1.6435,1.6434,1.643,1.643,1.6425,1.6415,1.6415,0,0,0,1.6527,1.6522,1.6515,1.6504,1.6491,1.6479,1.6463,1.6457,1.6441,1.6446,1.6426,1.6426,1.6423,1.6421,1.642,1.6417,1.6425,1.6425,1.6425,1.6526,1.6517,1.6504,1.6491,1.6481,1.6465,1.6455,1.6444,1.6437,1.6433,1.6427,1.6422,1.642,1.642,1.6417,1.6425,1.6425,1.6425,1.6425,1.6514,1.6505,1.6497,1.6482,1.6473,1.646,1.6444,1.644,1.6426,1.6426,1.6422,1.6422,1.642,1.6416,1.6425,1.6425,1.6425,1.6425,1.6425,1.6512,1.6506,1.6499,1.6482,1.647,1.6457,1.6445,1.6436,1.6428,1.6425,1.6418,1.6418,1.6417,1.6422,1.6422,1.6422,1.6422,1.6422,1.6422,1.6512,1.6504,1.6495,1.648,1.6472,1.646,1.6444,1.6436,1.6425,1.6419,1.6419,1.6413,1.6422,1.6424,1.6422,1.6422,1.6422,1.6422,1.6422,1.6503,1.6504,1.6489,1.6481,1.6463,1.6452,1.6442,1.6426,1.6418,1.6412,1.6407,1.6414,1.6411,1.6412,1.6413,1.6409,1.6409,1.6409,1.6409,1.6501,1.6499,1.6482,1.647,1.6457,1.6446,1.643,1.6418,1.6405,1.64,1.6399,1.6401,1.6402,1.6398,1.6399,1.64,1.6393,1.6393,1.6393,1.6495,1.6491,1.6479,1.6467,1.6452,1.644,1.6424,1.641,1.6396,1.6392,1.6395,1.6396,1.6398,1.64,1.6395,1.6396,1.6398,0,0]}]]